Location: A�t �Alizem
(31.2076°N, 8.7872°W)
Time: 04:59:16
(UTC+00:00)

deb Explorer IX - Pass Details

Date: 28 June 2021
Orbit: 541 x 1234 km, 38.9° (Epoch: 01 August)

Event Time Altitude Azimuth Distance (km) Brightness Sun altitude
Rises 22:19:40 0° 264° (W) 2,687 ? -26.2°
Reaches altitude 10° 22:21:54 10° 271° (W) 1,818 ? -26.5°
Maximum altitude 22:25:50 44° 344° (NNW) 803 ? -27.0°
Enters shadow 22:26:53 37° 22° (NNE) 927 ? -27.1°
